International Virtual Aviation Organisation

Eastern Europe and Northern Asia MCD

 

Карточка аэропорта UIII

Внимание!
Информация на этой странице в стадии наполнения.
Если вы не увидели какой-то информации, или заметили неточность - пожалуйста сообщите нам!
Спасибо!
Команда RU-STAFF
Название аэропортаИркутск
Название аэропорта (англ.)Irkutsk
Превышение1686 ft. (513.9 m.)
Координаты52°16.032', 104°23.7'
Высота перехода1100m
Эшелон переходаFL070
Коды ответчика3330-3347
Зона ОрВДИркутск РПИ (UIII)
Данные METARUIII 101100Z 31007MPS CAVOK 04/M08 Q1025 R30/CLRD60 NOSIG RMK QFE724/0965
Проноз погоды (TAF)UIII 101100Z 1012/1112 32006G13MPS 9999 BKN050CB
NOTAMshow/hide NOTAM
AWOS   TABLE

Информация о ВПП

ВПП Длина ВПП (м.) Покрытие Курс ВПП Частота ILS
123565Железобетон117111.3
303565Железобетон297110.3

Диспетчерские позиции

Позывной Наименование органа УВД Частота
UIII_APPИркутск-Подход125.2
UIII_R_APPИркутск-Круг119.3
UIII_TWRИркутск-Вышка118.1
UIII_GNDИркутск-Руление121.7
UIII_FSSИркутск-Транзит128.5



Спутниковое изображение